Weather History for Midland, MI

Change the Weather History Date:

Wednesday, January 2, 2013

  Actual Average (KMBS) Record (KMBS)
Temperature  
Mean Temperature 21 °F 23 °F  
Max Temperature 26 °F 30 °F 54 °F (2004)
Min Temperature 16 °F 17 °F 0 °F (2001)
Degree Days  
Heating Degree Days 44    
Month to date heating degree days  
Since 1 July heating degree days  
Cooling Degree Days 0    
Month to date cooling degree days  
Year to date cooling degree days  
Moisture  
Dew Point 16 °F    
Average Humidity 78    
Maximum Humidity 85    
Minimum Humidity 68    
Precipitation  
Precipitation 0.00 in 0.07 in 0.56 in (2005)
Month to date precipitation 0.13  
Year to date precipitation 0.13  
Snow  
Snow 0.00 in - - ()
Month to date snowfall  
Since 1 July snowfall  
Snow Depth -    
Sea Level Pressure  
Sea Level Pressure 30.10 in    
Wind  
Wind Speed 4 mph (SW)    
Max Wind Speed 10 mph    
Max Gust Speed -    
Visibility 10 miles    
Events Snow    
T = Trace of Precipitation, MM = Missing Value Source: NWS Daily Summary

Daily Weather History Graph

Daily Weather History Graph

Search for Another Location

Airport:

Trip Planner

Search our weather history database for the weather conditions in past years. The results will help you decide how hot, cold, wet, or windy it might be!

Date:

Astronomy

Jan. 02, 2013 Rise Set
Actual Time 8:10 AM EST 5:12 PM EST
Civil Twilight 7:38 AM EST 5:44 PM EST
Nautical Twilight 7:01 AM EST 6:20 PM EST
Astronomical Twilight 6:27 AM EST 6:55 PM EST
Moon 10:55 PM EST (1/2) 10:41 AM EST (1/2)
Length of Visible Light 10h 06m
Length of Day
9h 01m
Waning Gibbous, 75% of the Moon is Illuminated
Jan 2
Waning Gibbous
Jan 4
Last Quarter
Jan 11
New
Jan 18
First Quarter
Jan 26
Full

Hourly Weather History & Observations

Time (EST) Temp. Windchill Dew Point Humidity Pressure Visibility Wind Dir Wind Speed Gust Speed Precip Events Conditions
12:13 AM 18.5 °F 10.4 °F 11.3 °F 73% 30.04 in 10.0 mi West 5.8 mph - N/A   Overcast
12:34 AM 18.1 °F 11.3 °F 11.3 °F 75% 30.04 in 10.0 mi West 4.6 mph - N/A   Overcast
12:54 AM 18.1 °F 12.9 °F 11.3 °F 75% 30.04 in 10.0 mi WSW 3.5 mph - N/A   Overcast
1:14 AM 18.0 °F 11.1 °F 11.8 °F 77% 30.04 in 10.0 mi WSW 4.6 mph - N/A   Overcast
1:34 AM 17.6 °F 12.3 °F 11.7 °F 78% 30.04 in 10.0 mi WSW 3.5 mph - N/A   Overcast
1:54 AM 17.6 °F 12.3 °F 11.7 °F 78% 30.04 in 10.0 mi West 3.5 mph - N/A   Overcast
2:14 AM 17.1 °F 10.0 °F 11.7 °F 79% 30.04 in 10.0 mi SW 4.6 mph - N/A   Overcast
2:34 AM 16.5 °F 11.0 °F 11.3 °F 80% 30.04 in 10.0 mi WSW 3.5 mph - N/A   Overcast
2:54 AM 16.2 °F 10.6 °F 11.3 °F 81% 30.05 in 10.0 mi SW 3.5 mph - N/A   Overcast
3:14 AM 16.2 °F - 11.3 °F 81% 30.05 in 10.0 mi Calm Calm - N/A   Overcast
3:34 AM 16.5 °F 11.0 °F 11.8 °F 82% 30.06 in 10.0 mi SW 3.5 mph - N/A   Overcast
3:54 AM 16.7 °F 9.6 °F 12.0 °F 82% 30.06 in 10.0 mi SW 4.6 mph - N/A   Overcast
4:14 AM 17.2 °F 10.2 °F 12.0 °F 80% 30.06 in 10.0 mi WSW 4.6 mph - N/A   Overcast
4:34 AM 17.6 °F 10.7 °F 12.2 °F 79% 30.06 in 10.0 mi SW 4.6 mph - N/A   Overcast
4:54 AM 18.1 °F 11.3 °F 12.4 °F 78% 30.06 in 10.0 mi SW 4.6 mph - N/A   Overcast
5:14 AM 18.5 °F 10.4 °F 12.9 °F 79% 30.06 in 10.0 mi SW 5.8 mph - N/A   Overcast
5:34 AM 18.5 °F 13.3 °F 12.9 °F 79% 30.06 in 10.0 mi WSW 3.5 mph - N/A   Overcast
5:53 AM 19.0 °F 12.3 °F 13.3 °F 78% 30.05 in 10.0 mi WSW 4.6 mph - N/A   Overcast
6:14 AM 19.4 °F 12.8 °F 13.5 °F 78% 30.06 in 10.0 mi WSW 4.6 mph - N/A   Overcast
6:34 AM 19.4 °F 14.3 °F 13.6 °F 78% 30.07 in 10.0 mi WSW 3.5 mph - N/A   Overcast
6:54 AM 19.8 °F - 13.8 °F 78% 30.07 in 10.0 mi Calm Calm - N/A   Overcast
7:14 AM 20.1 °F - 14.2 °F 78% 30.08 in 10.0 mi Calm Calm - N/A   Overcast
7:34 AM 20.3 °F - 14.5 °F 78% 30.08 in 10.0 mi Calm Calm - N/A Snow Light Snow
7:54 AM 20.5 °F - 14.7 °F 78% 30.09 in 10.0 mi Calm Calm - N/A Snow Light Snow
8:14 AM 20.7 °F - 14.9 °F 78% 30.09 in 10.0 mi Calm Calm - N/A Snow Light Snow
8:26 AM 21.0 °F 16.2 °F 15.1 °F 78% 30.09 in 10.0 mi WSW 3.5 mph - N/A Snow Light Snow
8:54 AM 21.2 °F - 15.4 °F 78% 30.10 in 10.0 mi Calm Calm - N/A Snow Light Snow
9:15 AM 21.7 °F - 15.6 °F 77% 30.10 in 10.0 mi Calm Calm - N/A Snow Light Snow
9:34 AM 22.1 °F 17.4 °F 16.0 °F 77% 30.11 in 7.0 mi West 3.5 mph - N/A Snow Light Snow
9:54 AM 22.5 °F - 16.5 °F 78% 30.11 in 4.0 mi Calm Calm - N/A Snow Light Snow
10:14 AM 22.6 °F 14.3 °F 16.7 °F 78% 30.12 in 7.0 mi West 6.9 mph - N/A Snow Light Snow
10:34 AM 23.0 °F 12.4 °F 16.5 °F 76% 30.13 in 10.0 mi WSW 10.4 mph - N/A   Overcast
10:54 AM 23.2 °F 15.0 °F 16.5 °F 76% 30.14 in 10.0 mi West 6.9 mph - N/A   Overcast
11:14 AM 23.9 °F 15.8 °F 16.7 °F 74% 30.14 in 10.0 mi WSW 6.9 mph - N/A   Overcast
11:34 AM 23.9 °F 15.0 °F 16.9 °F 75% 30.14 in 10.0 mi West 8.1 mph - N/A   Overcast
11:54 AM 24.4 °F 15.6 °F 16.9 °F 73% 30.13 in 10.0 mi WSW 8.1 mph - N/A   Overcast
12:14 PM 24.6 °F 16.7 °F 16.9 °F 72% 30.13 in 10.0 mi WSW 6.9 mph - N/A   Overcast
12:34 PM 24.8 °F 15.3 °F 17.6 °F 74% 30.12 in 10.0 mi WSW 9.2 mph - N/A   Overcast
12:54 PM 24.8 °F 16.9 °F 17.6 °F 74% 30.12 in 10.0 mi West 6.9 mph - N/A   Overcast
1:09 PM 25.2 °F 16.5 °F 16.9 °F 71% 30.12 in 10.0 mi WSW 8.1 mph - N/A   Overcast
1:34 PM 25.7 °F 16.4 °F 16.3 °F 68% 30.11 in 10.0 mi West 9.2 mph - N/A   Overcast
1:54 PM 25.7 °F 16.4 °F 16.3 °F 68% 30.12 in 10.0 mi WSW 9.2 mph - N/A   Overcast
2:14 PM 25.7 °F 18.0 °F 16.5 °F 68% 30.12 in 10.0 mi WNW 6.9 mph - N/A Snow Light Snow
2:34 PM 25.3 °F 19.7 °F 17.2 °F 71% 30.12 in 10.0 mi West 4.6 mph - N/A Snow Light Snow
2:54 PM 25.2 °F 19.5 °F 17.2 °F 72% 30.11 in 7.0 mi WSW 4.6 mph - N/A Snow Light Snow
3:14 PM 25.3 °F - 18.0 °F 74% 30.12 in 10.0 mi Calm Calm - N/A Snow Light Snow
3:35 PM 24.8 °F 20.5 °F 18.5 °F 77% 30.11 in 10.0 mi SW 3.5 mph - N/A Snow Light Snow
3:54 PM 25.3 °F - 18.1 °F 74% 30.12 in 10.0 mi Calm Calm - N/A Snow Light Snow
4:14 PM 25.2 °F - 18.0 °F 74% 30.12 in 10.0 mi Calm Calm - N/A Snow Light Snow
4:34 PM 25.2 °F - 18.0 °F 74% 30.12 in 10.0 mi Calm Calm - N/A Snow Light Snow
4:54 PM 25.5 °F - 18.3 °F 74% 30.12 in 10.0 mi Calm Calm - N/A   Overcast
5:15 PM 25.2 °F - 18.3 °F 75% 30.12 in 10.0 mi Calm Calm - N/A   Overcast
5:25 PM 24.8 °F - 18.5 °F 77% 30.12 in 10.0 mi Calm Calm - N/A   Overcast
5:54 PM 25.0 °F - 18.7 °F 77% 30.13 in 10.0 mi Calm Calm - N/A   Overcast
6:14 PM 24.8 °F 19.1 °F 18.7 °F 78% 30.13 in 10.0 mi South 4.6 mph - N/A Snow Light Snow
6:34 PM 24.8 °F 19.1 °F 19.0 °F 79% 30.13 in 10.0 mi South 4.6 mph - N/A   Overcast
6:55 PM 24.8 °F 20.5 °F 19.4 °F 80% 30.14 in 10.0 mi South 3.5 mph - N/A   Overcast
7:14 PM 25.0 °F - 19.6 °F 80% 30.14 in 10.0 mi Calm Calm - N/A   Overcast
7:34 PM 25.2 °F 20.9 °F 19.8 °F 80% 30.14 in 10.0 mi South 3.5 mph - N/A   Overcast
7:55 PM 25.2 °F 20.9 °F 19.4 °F 79% 30.14 in 10.0 mi South 3.5 mph - N/A   Overcast
8:14 PM 25.3 °F 21.1 °F 19.9 °F 80% 30.14 in 10.0 mi SSE 3.5 mph - N/A   Overcast
8:34 PM 25.3 °F 21.1 °F 19.9 °F 80% 30.13 in 10.0 mi South 3.5 mph - N/A   Overcast
8:55 PM 25.3 °F 21.1 °F 20.1 °F 81% 30.12 in 10.0 mi SSE 3.5 mph - N/A   Overcast
9:14 PM 25.5 °F 19.9 °F 20.3 °F 81% 30.12 in 10.0 mi South 4.6 mph - N/A   Overcast
9:34 PM 25.5 °F 21.3 °F 20.3 °F 81% 30.12 in 10.0 mi South 3.5 mph - N/A   Overcast
9:54 PM 25.5 °F 19.9 °F 20.8 °F 82% 30.11 in 10.0 mi SSE 4.6 mph - N/A   Overcast
10:14 PM 25.5 °F 19.9 °F 21.0 °F 83% 30.11 in 10.0 mi SSE 4.6 mph - N/A   Overcast
10:34 PM 25.7 °F 20.1 °F 21.2 °F 83% 30.10 in 10.0 mi South 4.6 mph - N/A   Overcast
10:54 PM 25.7 °F 19.0 °F 21.7 °F 85% 30.10 in 10.0 mi South 5.8 mph - N/A   Overcast
11:15 PM 26.1 °F 19.4 °F 22.1 °F 85% 30.09 in 10.0 mi South 5.8 mph - N/A   Overcast
11:34 PM 26.4 °F 18.9 °F 22.5 °F 85% 30.09 in 10.0 mi South 6.9 mph - N/A   Overcast
11:54 PM 26.4 °F 18.9 °F 22.5 °F 85% 30.09 in 10.0 mi SSW 6.9 mph - N/A   Overcast